Location: Risskov
(56.1972°N, 10.2480°E)
Time: 00:27:18
(UTC+00:00)

Cosmos 1500 Rocket - Pass Details

Date: 05 July 2020
Orbit: 602 x 632 km, 82.5° (Epoch: 03 August)

Event Time Altitude Azimuth Distance (km) Brightness Sun altitude
Exits shadow 23:44:48 16° 184° (S) 1,646 5.1 -11.0°
Maximum altitude 23:48:20 78° 100° (E) 641 3.6 -11.0°
Drops below altitude 10° 23:52:45 10° 14° (NNE) 1,989 7.7 -10.9°
Sets 23:54:58 0° 14° (NNE) 2,894 9.1 -10.9°
